CAPE
923 1395 1528 1594 430 22 51 129 112 122 172 177 195 223 236 213 454 379 449 630 388 257 447 714 882 1097 1289 1430 1607 1560 1547 1276 1258 1604 1739 1711 1732 1642 1731 1718 1702 1864 1929 1892 1885 1954 1865 2098 2072
1812 1603 2109 1020 48 21 152 208 386 438 203 268 297 262 297 319 444 545 673 647 629 551 928 1064 961 1320 1457 1534 1603 1670 1628 1511 1510 1713 1865 2005 1857 1762 1749 1860 1730 1715 1827 1579 1615 1586 1748 1969 1724
2060 2089 1298 178 5 76 219 495 341 268 244 551 451 315 385 465 597 658 821 813 698 701 1110 1024 1229 1640 1524 1641 1709 1681 1619 1577 1673 1739 1773 1850 1880 1829 1780 1909 1875 1864 1763 1853 1894 1968 1919 1575 1608
2554 2311 457 5 79 309 562 613 692 641 620 529 465 451 380 634 685 790 862 982 1026 1172 1068 889 1723 1778 1796 1646 1701 1487 1753 1737 1797 1941 1892 1905 1904 1790 1880 1896 1865 1850 1679 1723 1538 1800 1724 1655 1568
2214 426 19 65 200 491 701 869 896 826 698 379 409 451 496 528 651 815 730 891 1059 1001 905 825 1974 1962 2120 2056 1603 1601 1760 1812 1849 1834 1951 1807 1843 1853 1896 1790 1564 1591 1862 1844 1700 1821 1617 1506 1507
660 60 0 15 384 660 830 973 954 852 711 516 568 568 835 622 852 830 848 863 1019 1028 916 668 1560 1838 1938 1812 1878 1801 1817 1885 1845 1888 1889 1761 1783 1570 1308 1281 1457 1651 1773 1646 1780 1753 1570 1547 1463
378 0 7 19 409 520 986 1019 853 631 603 609 517 628 653 757 915 930 957 1097 1083 1171 1126 764 460 1048 1447 1721 1653 1663 1842 1962 1846 1863 1826 1428 1277 1108 999 960 1571 1463 1712 1575 1552 1455 1452 1316 1394
420 14 0 0 53 754 978 816 879 816 590 550 496 518 601 778 725 883 1085 1200 1035 1011 736 788 495 329 537 1060 1672 1785 1769 1631 1401 1831 1712 1725 1002 642 705 656 853 916 1518 1515 869 780 1067 1387 1643
132 9 0 0 0 678 816 938 1256 632 524 596 892 466 597 590 576 779 885 810 966 816 346 298 396 315 358 769 1626 1763 1636 1474 1733 1249 1783 1389 810 103 36 80 328 634 818 1089 957 1289 1262 1483 1204
25 9 7 128 220 428 799 970 999 998 1034 934 845 397 590 556 575 529 628 654 269 251 150 50 104 481 1189 1045 1214 1341 1046 508 1362 932 979 1157 660 288 189 174 150 199 405 509 1233 1162 1428 802 244
25 0 12 577 500 682 793 685 689 566 401 1035 809 328 438 558 632 602 369 147 27 7 55 101 852 1196 955 746 1124 895 464 454 1148 1319 885 486 210 129 61 120 145 338 192 373 614 504 237 215 368
88 220 299 973 917 760 523 582 380 417 477 659 879 419 583 723 651 363 85 24 7 0 46 393 896 1263 1141 1029 750 840 347 749 1046 835 827 487 113 88 50 16 0 178 252 285 261 171 147 260 275
75 278 766 970 929 648 569 414 233 394 655 879 735 685 862 906 985 941 650 780 490 93 31 137 792 1195 1326 745 134 480 310 240 496 399 503 407 148 121 85 21 10 0 22 134 133 121 67 66 7
281 503 749 923 1025 649 453 409 298 435 639 765 757 859 911 929 928 952 863 846 878 699 268 197 698 1056 1138 372 309 457 634 512 559 519 670 783 198 160 120 142 126 45 9 0 36 83 96 45 14
299 470 753 926 1010 822 904 565 266 411 590 735 781 807 798 871 882 857 860 890 876 887 659 399 528 654 1033 768 572 669 961 886 770 778 299 351 533 214 437 248 192 70 47 0 69 102 23 30 11
97 154 146 842 987 1010 579 610 552 473 511 607 680 656 663 780 757 800 745 722 705 857 881 1128 907 796 949 1113 1127 947 1025 1113 781 610 305 472 696 691 419 510 366 460 189 8 2 15 51 11 3
6 81 70 189 624 816 712 564 687 664 502 448 467 470 579 633 716 673 652 601 556 613 861 1079 1211 1153 1278 1466 1527 1405 1182 1130 56 5 0 49 236 647 843 628 564 753 636 410 328 320 225 120 233
9 19 0 0 30 513 748 786 768 762 716 528 385 337 512 519 600 724 728 599 626 644 765 858 948 1288 1464 1599 1864 1616 1553 968 235 151 84 58 29 172 92 204 727 890 695 626 576 547 469 448 334
0 0 0 0 0 95 443 602 728 854 809 719 531 288 396 550 608 692 870 928 905 941 955 927 936 983 1475 1600 1557 1511 1325 1137 1245 503 507 342 299 317 48 73 97 607 667 818 738 720 630 544 570
0 0 1 0 0 93 241 466 656 929 932 829 776 596 290 503 701 1055 1221 1243 1217 1254 1344 1481 1505 1626 1619 1454 1513 1341 1393 1304 1268 1249 1216 1018 1087 908 499 580 715 893 573 269 332 815 805 791 498
0 0 0 0 0 222 299 386 757 835 1066 961 850 753 550 620 621 1012 1305 1182 1227 1428 1594 1622 1727 1755 1650 1544 1573 1559 1588 1840 1437 1643 1491 1262 1507 1654 1285 1564 1471 981 725 377 97 20 193 715 613
5 0 0 0 6 113 132 125 343 832 1040 1105 982 871 714 841 1010 1088 988 976 1014 1090 1423 1568 1648 1584 1534 1486 1381 1540 1574 1671 1597 1608 1881 2092 1968 1505 1725 1391 1440 1415 1149 557 611 386 756 582 483
0 0 0 0 0 65 192 79 282 362 714 1076 1162 1016 907 978 1156 981 1056 767 1003 1032 1290 1266 1359 1463 1467 1498 1618 1330 966 1417 1787 2098 2348 2592 2340 2167 2072 2173 2411 1913 1417 1029 1059 1026 766 629 703
0 0 0 0 20 87 134 32 95 126 985 855 1023 1094 1076 1096 1356 1389 1093 1115 1136 1308 1151 1534 1009 959 1466 1107 347 118 618 679 1288 1766 2117 1898 1666 1496 1575 1725 1994 2241 1833 1686 1562 1364 1172 1022 1025
0 0 9 73 109 83 13 23 66 346 541 721 746 1175 1158 1247 1482 1440 994 980 1064 918 1311 1220 1078 646 397 292 330 251 419 257 534 512 818 918 664 728 565 667 1070 1331 1300 1629 1668 1658 1525 1415 1287
0 0 4 53 128 144 62 31 216 629 967 1080 1069 727 1196 1390 1453 1214 833 909 719 842 625 339 626 605 326 107 124 56 98 110 259 172 173 154 125 128 64 109 200 353 428 627 1073 1395 1403 1487 1433
0 0 0 25 66 14 82 127 79 599 907 1237 1168 1165 1397 1434 1340 1008 787 756 849 842 1032 874 788 507 369 448 336 199 201 84 42 26 7 0 0 0 0 0 0 0 0 95 356 569 633 633 890
0 0 0 0 18 74 91 119 119 637 960 1180 1266 1408 1429 1429 1270 1118 1034 1013 907 992 1154 853 655 556 242 193 84 27 0 0 0 0 0 0 0 0 0 0 0 0 0 0 0 43 189 194 404
0 0 0 1 29 83 115 186 180 472 860 1044 1353 1378 1409 1343 1215 1196 1245 1130 801 681 701 466 261 123 25 0 0 0 0 0 0 0 0 0 0 0 0 0 0 0 1 1 0 0 0 0 0
0 0 0 0 10 0 29 106 470 601 841 1194 1440 1567 1406 1225 1101 1093 899 588 629 651 461 242 63 0 0 0 0 0 0 0 0 0 0 0 0 0 4 5 2 3 6 10 7 5 8 7 5
CIN
-268 -155 -121 -85 -17 -4 -3 -1 -2 -3 -3 -8 -28 -2 -25 -60 -13 -14 -1 -1 -17 -36 -23 -21 -8 -9 -8 -10 -4 -4 -3 -5 -7 -0 -0 -0 -0 -1 -2 -0 -0 -0 -0 -0 -0 -0 -0 -0 -0
-131 -147 -96 -34 -23 -4 -2 -1 -0 -1 -23 -31 -35 -32 -25 -44 -40 -21 -0 -1 -1 -1 -0 -0 -7 -6 -3 -1 -0 -0 -0 -1 -3 -0 -0 -0 -0 -0 -0 -0 -0 -0 -0 -0 -0 -0 -0 -0 -0
-133 -125 -10 -6 -1 -11 -1 -1 -12 -27 -31 -1 -24 -46 -38 -26 -16 -15 -2 -2 -1 -1 -0 -0 -3 -0 -0 -0 -0 -0 -0 -0 -0 -0 -0 -0 -0 -0 -0 -0 -0 -0 -0 -0 -0 -0 -0 -0 -4
-67 -36 -35 -2 -13 -2 -1 -2 -1 -1 -2 -21 -24 -43 -67 -16 -9 -5 -2 -1 -0 -1 -1 -16 -0 -0 -0 -0 -0 -1 -0 -0 -0 -0 -0 -0 -0 -0 -0 -0 -0 -0 -0 -0 -0 -0 -0 -0 -3
-72 -32 -35 -21 -7 -1 -2 -1 -1 -1 -5 -28 -31 -46 -57 -30 -24 -11 -8 -1 -1 -1 -1 -13 -1 -0 -0 -0 -0 -2 -0 -0 -0 -1 -1 -0 -0 -0 -0 -0 -0 -0 -0 -0 -0 -0 -0 -0 -1
-11 -81 -0 -61 -9 -1 -1 -1 -1 -1 -7 -26 -26 -40 -14 -29 -11 -10 -8 -4 -1 -1 -1 -11 -0 -0 -0 -0 -0 -0 -0 -0 -0 -0 -2 -2 -1 -3 -0 -1 -0 -0 -0 -0 -0 -0 -0 -0 -0
-10 -0 -99 -65 -5 -11 -2 -2 -1 -14 -15 -11 -16 -15 -27 -9 -1 -1 -0 -1 -1 -0 -0 -1 -28 -7 -2 -1 -1 -0 -0 -0 -0 -0 -1 -2 -5 -4 -9 -7 -0 -0 -0 -0 -0 -0 -0 -1 -3
-17 -7 -0 -0 -52 -33 -23 -13 -12 -2 -36 -52 -18 -27 -41 -25 -23 -3 -1 -1 -1 -1 -1 -1 -7 -28 -19 -1 -0 -0 -0 -0 -4 -1 -1 -1 -6 -19 -12 -1 -0 -0 -0 -0 -6 -5 -1 -0 -0
-103 -2 -0 -0 -0 -52 -58 -9 -9 -50 -44 -19 -14 -11 -42 -63 -48 -14 -7 -8 -4 -4 -22 -24 -16 -26 -8 -0 -2 -0 -2 -2 -0 -4 -1 -6 -11 -76 -83 -29 -5 -2 -1 -0 -1 -0 -0 -0 -8
-20 -3 -61 -44 -34 -57 -65 -27 -23 -3 -1 -12 -16 -64 -74 -73 -50 -36 -25 -20 -59 -54 -59 -71 -50 -9 -1 -0 -1 -0 -1 -1 -1 -3 -1 -2 -6 -3 -2 -11 -17 -10 -4 -5 -0 -0 -0 -17 -2
-85 -0 -36 -45 -48 -55 -82 -81 -62 -13 -7 -27 -41 -111 -91 -65 -39 -16 -33 -78 -104 -93 -118 -82 -1 -0 -1 -1 -0 -0 -1 -0 -1 -1 -4 -6 -6 -9 -2 -0 -0 -2 -9 -2 -4 -3 -2 -1 -1
-37 -41 -36 -50 -70 -77 -78 -109 -113 -86 -81 -63 -62 -107 -58 -27 -19 -39 -77 -121 -102 -0 -108 -15 -4 -0 -0 -0 -1 -0 -0 -1 -2 -0 -1 -1 -17 -16 -10 -15 -0 -1 -0 -2 -1 -0 -1 -1 -0
-36 -30 -47 -64 -68 -78 -98 -106 -151 -157 -127 -86 -100 -69 -17 -0 -1 -1 -5 -2 -17 -81 -114 -50 -2 -1 -2 -25 -33 -1 -9 -15 -0 -0 -0 -0 -6 -1 -2 -26 -8 -0 -1 -0 -0 -1 -1 -2 -90
-33 -28 -39 -44 -58 -90 -92 -110 -119 -186 -141 -103 -85 -47 -13 -3 -1 -1 -1 -1 -3 -10 -33 -35 -13 -26 -31 -48 -35 -1 -0 -4 -4 -0 -5 -0 -6 -0 -1 -1 -0 -6 -37 -0 -1 -1 -1 -2 -22
-25 -25 -34 -46 -49 -53 -53 -52 -77 -173 -170 -125 -75 -48 -44 -21 -7 -1 -3 -1 -8 -7 -6 -12 -21 -15 -17 -34 -17 -2 -1 -0 -1 -1 -10 -6 -1 -10 -1 -4 -6 -22 -20 -0 -7 -2 -25 -60 -61
-21 -18 -3 -32 -57 -69 -66 -13 -102 -161 -155 -134 -118 -102 -81 -46 -15 -7 -20 -7 -4 -3 -9 -12 -4 -4 -8 -1 -1 -1 -6 -0 -1 -3 -11 -0 -0 -0 -1 -1 -11 -0 -20 -91 -136 -56 -24 -71 -43
-19 -5 -9 -17 -64 -70 -80 -24 -77 -115 -116 -121 -127 -132 -108 -77 -54 -45 -22 -32 -24 -27 -13 -11 -11 -1 -1 -2 -1 -1 -0 -10 -107 -180 -0 -131 -38 -13 -0 -0 -1 -0 -0 -2 -1 -1 -8 -31 -8
-2 -2 -0 -0 -5 -70 -54 -49 -74 -93 -85 -96 -110 -111 -99 -81 -62 -34 -17 -22 -23 -30 -33 -35 -18 -16 -14 -4 -2 -1 -1 -36 -126 -104 -105 -101 -147 -56 -101 -41 -1 -0 -4 -0 -0 -0 -0 -0 -6
-0 -0 -0 -0 -0 -43 -32 -28 -51 -114 -96 -76 -72 -100 -84 -75 -38 -20 -7 -3 -2 -5 -23 -44 -53 -37 -29 -14 -6 -1 -4 -1 -16 -79 -58 -73 -68 -90 -143 -162 -159 -16 -13 -0 -0 -0 -0 -0 -0
-0 -0 -2 -0 -0 -49 -14 -22 -34 -92 -104 -76 -70 -61 -93 -67 -33 -15 -4 -7 -3 -5 -14 -27 -28 -26 -37 -17 -14 -20 -20 -11 -3 -0 -14 -11 -9 -32 -79 -74 -33 -14 -25 -80 -54 -0 -0 -3 -3
-0 -0 -0 -0 -0 -42 -23 -8 -45 -70 -124 -93 -66 -71 -75 -58 -23 -5 -14 -24 -19 -13 -19 -33 -45 -47 -36 -29 -32 -36 -38 -10 -26 -0 -14 -24 -16 -10 -17 -13 -16 -31 -39 -70 -134 -200 -104 -10 -5
-2 -0 -0 -0 -49 -5 -22 -6 -5 -29 -77 -114 -71 -61 -67 -66 -40 -34 -55 -61 -48 -60 -46 -64 -84 -105 -103 -95 -74 -57 -29 -24 -36 -24 -3 -1 -11 -14 -11 -28 -21 -5 -13 -60 -66 -77 -22 -17 -22
-0 -0 -0 -0 -0 -4 -5 -4 -0 -49 -46 -59 -98 -51 -66 -60 -48 -35 -25 -157 -114 -82 -108 -146 -138 -125 -124 -103 -72 -87 -72 -60 -46 -9 -0 -0 -0 -0 -0 -0 -0 -2 -11 -21 -17 -17 -22 -19 -4
-0 -0 -0 -0 -6 -9 -10 -7 -4 -5 -31 -73 -83 -88 -58 -54 -48 -39 -130 -140 -121 -96 -115 -82 -115 -162 -67 -102 -184 -210 -110 -102 -60 -53 -1 -2 -6 -2 -0 -1 -0 -0 -1 -3 -4 -7 -11 -11 -3
-0 -0 -4 -6 -7 -5 -30 -12 -2 -8 -88 -135 -133 -94 -90 -98 -77 -109 -152 -176 -112 -117 -93 -80 -91 -154 -166 -140 -157 -191 -131 -181 -112 -149 -62 -41 -74 -49 -74 -56 -15 -4 -6 -4 -3 -7 -5 -4 -4
-0 -0 -5 -5 -4 -7 -22 -3 -3 -61 -138 -193 -223 -197 -117 -117 -120 -130 -132 -136 -146 -116 -177 -228 -136 -113 -148 -215 -183 -236 -224 -193 -170 -235 -183 -181 -172 -161 -233 -175 -129 -66 -46 -46 -2 -0 -0 -0 -0
-0 -0 -0 -5 -9 -11 -4 -6 -7 -45 -112 -194 -208 -191 -156 -154 -156 -165 -172 -172 -136 -123 -95 -113 -107 -165 -145 -62 -64 -95 -114 -213 -254 -251 -214 -0 -0 -0 -0 -0 -0 -0 -0 -108 -27 -0 -3 -36 -14
-0 -0 -0 -0 -4 -4 -5 -3 -4 -16 -49 -159 -193 -211 -216 -192 -198 -165 -147 -156 -163 -116 -83 -113 -128 -130 -177 -148 -194 -203 -29 -0 -0 -0 -0 -0 -0 -0 -0 -0 -0 -0 -0 -0 -0 -68 -64 -62 -7
-0 -0 -0 -1 -7 -8 -6 -8 -9 -12 -39 -112 -163 -235 -246 -226 -203 -170 -134 -153 -204 -192 -156 -209 -228 -284 -382 -0 -0 -0 -0 -0 -0 -0 -0 -0 -0 -0 -0 -0 -0 -0 -1 -1 -0 -0 -0 -0 -0
-0 -0 -0 -0 -2 -0 -9 -7 -53 -34 -39 -105 -194 -246 -262 -246 -232 -200 -227 -302 -226 -168 -196 -247 -319 -10 -0 -0 -0 -0 -0 -0 -0 -0 -0 -0 -0 -0 -0 -1 -0 -1 -0 -1 -0 -0 -1 -1 -1
Wind_Speed
24 23 20 19 23 30 32 28 27 26 24 24 7 8 13 13 12 7 12 24 27 28 30 31 31 30 30 28 29 29 28 27 27 26 25 24 23 23 23 22 21 19 15 15 14 17 18 17 18
22 20 18 17 28 32 32 26 24 23 25 25 21 10 12 13 11 14 12 22 25 25 27 29 30 29 28 26 28 27 27 27 26 26 25 23 22 22 23 23 21 19 16 13 16 17 17 17 17
18 15 16 21 31 32 30 28 28 28 26 22 20 12 10 8 17 10 17 21 24 25 25 26 27 26 25 24 25 25 25 26 25 24 23 23 22 21 21 22 21 18 15 14 15 16 16 15 14
16 19 18 31 33 30 31 28 26 24 22 18 22 22 15 8 7 18 22 22 22 22 23 23 24 24 22 21 23 23 23 22 22 21 21 21 20 20 19 20 19 18 17 16 15 14 14 14 13
15 18 31 34 33 31 29 26 19 22 22 23 20 24 25 5 21 24 24 23 21 21 21 23 21 21 18 19 18 17 18 19 18 17 18 19 20 19 18 18 18 17 16 15 15 14 13 12 12
20 18 31 34 30 26 25 20 24 25 24 23 28 30 26 22 26 25 25 23 20 19 21 20 19 18 17 15 9 12 14 16 15 15 16 16 16 16 17 17 16 16 15 14 14 13 12 12 11
19 27 30 31 27 25 21 20 25 27 25 25 28 26 26 27 26 26 24 23 23 21 20 18 18 17 16 16 13 14 13 12 13 14 15 14 14 15 15 16 15 14 14 12 11 12 11 10 10
15 21 32 30 30 27 23 24 24 24 26 27 25 22 27 28 28 26 24 23 24 22 20 20 19 19 18 13 12 11 11 12 12 13 13 14 13 15 18 15 14 13 12 11 10 10 10 10 10
14 28 31 29 27 26 25 22 22 23 27 23 19 26 28 29 29 27 26 25 24 24 22 21 20 18 17 9 10 10 11 12 11 12 13 13 14 15 16 19 16 13 12 10 9 9 9 8 8
17 28 28 17 22 27 24 21 24 24 24 23 24 27 30 29 28 27 26 25 24 23 22 21 20 19 15 12 10 10 11 11 11 11 12 16 12 14 14 14 14 8 8 7 7 7 7 9 8
21 24 21 18 23 25 26 26 22 21 21 22 24 27 30 29 28 26 25 24 23 22 21 19 16 15 19 20 14 9 10 11 10 11 19 18 13 11 14 16 11 9 7 10 8 7 11 11 16
20 23 23 23 26 21 26 23 27 24 23 24 26 29 29 27 26 25 24 24 23 21 20 17 16 14 15 20 20 20 21 15 16 16 18 10 10 9 14 18 21 21 22 7 13 4 22 19 14
21 22 23 24 25 26 21 25 29 29 29 29 29 28 27 25 25 25 24 23 22 21 20 20 19 17 11 19 21 22 20 20 18 18 13 15 16 10 8 13 9 13 23 20 10 8 6 2 20
21 21 22 20 21 23 25 24 20 26 28 29 28 26 25 24 24 24 24 23 22 22 21 21 20 19 17 19 15 20 20 18 17 17 20 14 17 12 20 15 11 5 12 22 23 4 18 19 28
19 20 19 18 17 18 18 22 24 25 26 26 25 23 23 23 23 22 23 22 22 21 21 20 20 21 21 21 19 18 17 17 17 19 19 19 22 23 20 11 15 15 6 8 17 23 22 10 26
15 15 14 16 15 15 15 20 20 23 23 23 23 22 22 22 22 22 21 21 21 20 20 20 20 20 20 20 19 18 17 16 18 21 23 22 23 23 22 17 15 13 7 7 7 17 10 12 18
13 15 17 16 14 15 14 18 17 19 19 20 20 21 21 22 20 20 19 19 19 19 19 19 19 18 18 16 18 18 2 14 18 19 21 18 19 22 23 23 22 18 16 14 15 13 11 16 16
11 13 15 19 18 12 11 11 15 16 16 17 18 19 20 20 19 19 18 17 18 18 18 17 18 16 14 13 12 12 13 12 10 12 14 20 15 19 22 24 22 20 17 15 14 15 14 14 14
11 13 16 18 17 11 9 10 11 13 14 15 16 17 18 18 19 19 16 15 14 15 15 15 14 13 12 12 12 12 12 11 11 10 11 11 13 11 8 20 20 19 16 18 18 17 16 16 16
11 13 14 12 19 12 11 10 10 11 12 14 15 17 17 16 16 17 15 15 14 14 12 12 11 11 10 11 12 12 13 13 12 11 11 11 10 9 11 19 21 23 22 19 14 17 19 17 14
6 13 18 22 22 11 10 9 13 10 10 13 13 15 16 14 13 10 12 13 13 11 9 8 7 9 9 10 11 11 13 14 15 15 13 10 9 9 8 10 15 12 5 5 14 21 15 17 12
1 10 20 24 24 22 20 22 14 12 10 9 12 14 15 13 11 11 11 12 13 10 7 6 6 7 6 7 9 11 13 15 16 18 16 16 15 15 13 10 8 9 10 5 3 14 13 2 10
12 13 19 24 27 26 7 15 14 13 9 7 9 13 13 11 11 9 9 11 14 13 10 8 6 8 6 8 9 9 12 15 17 19 18 17 18 18 21 20 17 17 15 12 10 11 12 6 3
13 9 11 16 24 23 9 17 21 17 15 15 9 13 12 11 11 8 8 9 14 16 15 12 9 7 9 10 9 11 12 15 17 21 21 19 19 19 22 23 22 20 20 19 18 16 16 16 10
7 6 12 7 2 2 11 15 19 17 15 13 13 11 12 11 12 11 12 10 13 16 17 17 15 11 5 6 4 16 19 17 12 17 20 20 20 20 23 24 24 23 24 24 22 21 22 21 21
9 16 17 8 3 17 12 13 15 16 15 14 12 12 12 14 14 14 19 16 14 14 16 17 15 15 15 13 10 9 8 10 14 13 15 18 21 21 23 24 24 24 24 24 26 25 25 25 26
8 10 16 26 11 19 18 13 12 9 13 12 13 13 14 15 14 15 14 14 12 12 14 14 14 14 16 17 15 14 15 14 14 14 16 18 20 22 22 22 23 24 25 24 24 24 27 27 27
22 24 7 9 8 3 8 11 16 11 10 10 9 11 13 13 12 12 12 12 12 12 12 13 14 16 16 17 17 17 17 17 17 16 17 21 22 23 24 25 26 26 25 25 25 24 24 27 27
10 8 11 15 11 12 3 2 7 12 8 10 8 9 10 12 13 13 13 13 12 13 13 14 15 16 16 17 17 16 17 18 18 18 20 22 24 25 26 27 26 25 25 26 25 26 25 27 28
11 10 12 11 8 10 36 29 13 10 7 7 8 6 8 8 9 10 12 13 13 14 14 14 15 15 15 15 16 17 18 19 20 20 22 23 24 25 25 26 26 26 26 27 27 27 27 27 28
Wind_Direction
115 116 121 123 97 74 58 68 65 72 78 101 322 300 6 335 300 6 70 94 100 106 116 139 142 140 118 94 104 111 107 105 105 97 93 90 88 96 99 86 81 71 50 50 48 56 59 56 58
117 121 121 118 77 62 60 76 85 80 81 90 68 77 325 337 10 63 71 94 98 97 107 129 128 122 114 98 106 106 106 107 107 103 102 92 87 91 95 99 84 72 61 48 57 60 60 57 54
128 130 118 99 71 68 69 83 88 93 102 113 118 347 282 337 71 53 84 94 98 102 103 102 112 106 105 100 102 105 107 111 109 110 113 103 93 91 94 95 86 71 59 52 57 61 59 54 46
128 120 111 75 69 79 73 90 98 110 112 126 99 70 33 38 19 79 96 97 98 95 94 95 101 99 92 90 96 100 98 96 104 99 109 106 91 87 89 94 88 80 69 70 62 58 56 50 39
137 117 85 77 78 81 84 100 114 105 110 109 125 98 87 275 83 95 101 102 96 96 93 101 93 92 82 84 77 73 77 84 83 77 83 102 97 87 93 89 93 85 76 69 68 62 56 44 28
116 118 83 75 85 93 97 112 99 95 108 112 93 98 118 91 103 105 108 103 94 91 101 94 93 88 79 70 20 42 61 74 60 63 79 85 76 89 96 102 92 93 79 73 67 66 56 42 24
117 93 83 81 90 93 104 110 93 92 102 107 110 104 104 114 111 113 110 108 110 99 100 96 99 94 87 83 59 65 51 34 39 56 92 91 61 89 86 101 96 90 88 71 50 63 58 39 14
134 106 82 86 82 89 102 97 99 98 99 112 117 114 120 120 123 115 113 111 124 115 105 106 107 115 111 77 68 38 12 21 35 60 30 37 286 305 267 153 100 101 85 79 49 54 55 40 14
146 87 83 84 85 91 98 100 96 99 97 112 120 116 118 121 127 126 123 128 132 135 122 122 118 111 120 30 18 17 30 354 38 55 57 347 348 17 158 187 159 117 106 84 65 58 61 37 27
126 77 86 112 99 90 96 101 95 94 95 104 103 104 117 123 131 133 134 134 136 134 132 126 129 128 103 81 14 32 1 76 51 31 12 247 313 217 234 310 319 50 53 56 56 68 55 114 121
100 87 108 115 101 99 91 92 98 104 101 112 112 111 126 130 136 137 136 136 137 136 134 124 116 113 176 208 299 70 42 92 51 77 230 224 136 183 211 290 45 22 58 145 112 115 149 144 307
95 48 85 99 87 108 88 101 85 95 101 107 112 116 121 125 132 138 139 141 142 140 137 126 118 107 137 223 194 239 207 160 161 156 181 97 119 118 225 327 280 285 276 30 316 73 278 293 318
97 72 58 75 76 82 109 87 79 86 94 98 105 115 122 125 131 144 145 141 142 143 146 147 139 129 283 202 218 193 184 186 200 198 152 180 196 148 149 11 56 227 261 268 157 151 352 101 294
89 76 77 76 70 73 73 85 98 91 100 102 108 112 120 130 131 137 143 142 139 139 140 141 141 132 129 170 202 179 194 188 190 203 257 184 208 217 235 210 360 78 351 234 226 142 200 209 234
99 73 69 87 87 77 97 77 75 96 100 106 118 115 120 128 132 136 140 137 135 134 131 139 149 157 161 167 167 179 179 180 252 297 321 320 288 245 223 185 206 209 51 160 201 235 289 193 225
93 115 92 83 108 109 117 60 87 103 101 107 116 119 122 127 135 138 136 139 135 140 137 137 138 147 155 172 176 183 203 269 322 303 296 316 284 265 238 212 208 193 147 150 165 205 191 195 205
85 35 36 64 119 103 121 61 95 110 108 111 116 122 124 132 133 132 134 136 138 139 141 144 143 143 138 132 175 193 0 347 27 37 1 338 319 297 282 258 243 219 208 194 199 187 178 197 202
26 34 38 6 50 120 118 124 90 116 119 116 123 125 129 131 123 123 130 124 132 137 140 141 145 137 127 112 103 105 31 46 48 43 67 36 351 326 323 262 250 238 220 208 202 208 199 196 198
358 5 353 5 37 87 117 131 107 121 130 129 133 133 131 131 126 124 115 118 123 132 135 133 130 116 107 101 97 95 88 98 88 100 97 111 138 129 55 247 257 232 222 229 225 220 214 210 202
344 348 355 39 354 79 73 108 103 118 141 144 139 144 138 130 121 121 115 126 128 130 123 112 102 90 83 73 57 47 50 60 71 79 94 106 124 142 179 235 246 258 255 236 212 226 219 213 198
353 329 321 310 280 52 60 117 73 105 130 148 146 146 146 135 120 98 94 112 120 118 110 86 59 58 52 31 28 27 33 35 36 40 54 77 103 120 144 189 221 205 81 163 272 272 206 214 193
197 325 305 295 279 304 330 304 36 91 116 132 151 151 147 141 126 107 91 65 41 62 45 41 38 68 36 24 10 5 11 10 8 8 32 46 51 52 64 81 86 51 34 75 143 215 212 157 202
298 321 306 293 269 282 30 358 11 46 60 88 143 157 152 136 134 117 78 40 31 53 61 91 358 66 31 347 351 10 2 4 5 349 8 25 26 29 9 9 19 15 16 17 13 6 354 357 206
295 313 320 320 298 230 356 341 338 359 13 37 101 150 151 141 137 100 87 49 25 83 81 102 83 23 0 331 339 341 350 345 347 320 327 357 11 17 9 356 353 357 356 355 352 349 344 341 341
217 241 193 187 20 340 345 340 324 3 16 49 71 115 136 134 134 121 113 78 97 101 99 123 124 96 79 327 48 320 318 335 349 334 324 348 357 2 356 356 357 353 346 339 338 337 330 327 324
204 195 195 191 214 313 342 341 345 3 27 59 76 106 108 124 128 128 150 124 112 95 85 100 104 105 119 71 68 85 96 64 3 354 353 350 348 351 351 351 351 349 347 343 334 330 325 320 314
282 204 201 212 311 300 316 336 341 22 16 48 38 72 93 111 112 119 110 106 91 75 72 69 90 71 57 56 60 52 39 18 16 2 358 356 355 352 352 351 350 346 342 340 338 334 327 322 317
276 280 212 212 204 246 327 327 319 358 21 48 20 44 85 88 81 86 86 76 73 64 56 48 49 62 60 57 52 40 33 20 10 2 358 352 350 349 348 347 346 345 343 341 339 336 333 325 320
242 247 271 283 204 205 225 337 3 350 46 69 17 32 56 84 90 76 69 62 63 51 57 59 62 60 59 57 50 41 30 19 13 6 356 350 347 347 348 347 349 350 349 347 343 339 336 328 321
272 216 208 212 223 275 261 273 335 356 24 49 33 28 53 45 54 57 62 57 53 62 58 58 59 56 49 45 38 26 17 13 7 1 356 351 350 351 351 349 351 353 352 347 345 341 335 331 327